• en France
  • Liste des pays
  • À 7 jours
  • Température de l'eau
  • Carte satellitaire
  • Carte météo
  • Widgets météo
  • user-avatar
    Se connecter

    Météo par heure à Marulew

    Ce jour, 19 Août, Dimanche

    Heure Température Précipitation Vent Pression Humidité
    00:00 +22°C° 0 mm 1 m/s 756 mmHg 72%
    01:00 +22°C° 0 mm 1 m/s 756 mmHg 73%
    02:00 +22°C° 0 mm 1 m/s 756 mmHg 73%
    03:00 +22°C° 0 mm 1 m/s 756 mmHg 74%
    04:00 +21°C° 0 mm 1 m/s 756 mmHg 74%
    05:00 +22°C° 0 mm 1 m/s 756 mmHg 71%
    06:00 +23°C° 0 mm 1 m/s 756 mmHg 69%
    07:00 +24°C° 0 mm 1 m/s 756 mmHg 66%
    08:00 +25°C° 0,1 mm 1 m/s 756 mmHg 62%
    09:00 +27°C° 0,1 mm 2 m/s 756 mmHg 57%
    10:00 +28°C° 0,1 mm 2 m/s 756 mmHg 53%
    11:00 +29°C° 0,1 mm 2 m/s 756 mmHg 49%
    12:00 +29°C° 0,1 mm 2 m/s 755 mmHg 44%
    13:00 +30°C° 0,1 mm 3 m/s 755 mmHg 40%
    14:00 +30°C° 0 mm 3 m/s 755 mmHg 38%
    15:00 +30°C° 0 mm 3 m/s 755 mmHg 37%
    16:00 +30°C° 0 mm 2 m/s 754 mmHg 35%
    17:00 +29°C° 0 mm 2 m/s 754 mmHg 39%
    18:00 +27°C° 0 mm 2 m/s 754 mmHg 42%
    19:00 +25°C° 0 mm 1 m/s 754 mmHg 46%
    20:00 +25°C° 0 mm 1 m/s 754 mmHg 47%
    21:00 +24°C° 0 mm 1 m/s 754 mmHg 47%
    22:00 +23°C° 0 mm 1 m/s 754 mmHg 48%
    23:00 +23°C° 0 mm 1 m/s 754 mmHg 49%

    Demain, 20 Août, Lundi

    Heure Température Précipitation Vent Pression Humidité
    00:00 +23°C° 0 mm 2 m/s 753 mmHg 49%
    01:00 +21°C° 0 mm 2 m/s 753 mmHg 50%
    02:00 +21°C° 0 mm 2 m/s 753 mmHg 52%
    03:00 +21°C° 0 mm 2 m/s 753 mmHg 54%
    04:00 +21°C° 0 mm 2 m/s 752 mmHg 55%
    05:00 +22°C° 0 mm 3 m/s 752 mmHg 57%
    06:00 +24°C° 0 mm 3 m/s 752 mmHg 59%
    07:00 +25°C° 0 mm 3 m/s 752 mmHg 60%
    08:00 +27°C° 0 mm 3 m/s 752 mmHg 56%
    09:00 +28°C° 0 mm 4 m/s 752 mmHg 51%
    10:00 +30°C° 0 mm 4 m/s 752 mmHg 47%
    11:00 +30°C° 0 mm 4 m/s 752 mmHg 45%
    12:00 +30°C° 0 mm 5 m/s 752 mmHg 44%
    13:00 +32°C° 0 mm 5 m/s 751 mmHg 43%
    14:00 +30°C° 0 mm 5 m/s 751 mmHg 43%
    15:00 +30°C° 0 mm 5 m/s 751 mmHg 44%
    16:00 +30°C° 0 mm 6 m/s 751 mmHg 45%
    17:00 +28°C° 0 mm 5 m/s 751 mmHg 50%
    18:00 +27°C° 0 mm 4 m/s 751 mmHg 55%
    19:00 +25°C° 0 mm 3 m/s 751 mmHg 61%
    20:00 +24°C° 0 mm 3 m/s 752 mmHg 65%
    21:00 +22°C° 0 mm 4 m/s 752 mmHg 70%
    22:00 +21°C° 0 mm 4 m/s 753 mmHg 74%
    23:00 +20°C° 0 mm 4 m/s 753 mmHg 74%

    Après-demain, 21 Août, Mardi

    Heure Température Précipitation Vent Pression Humidité
    00:00 +19°C° 0 mm 3 m/s 753 mmHg 73%
    01:00 +18°C° 0 mm 3 m/s 754 mmHg 73%
    02:00 +17°C° 0 mm 3 m/s 754 mmHg 73%
    03:00 +16°C° 0 mm 3 m/s 754 mmHg 73%
    04:00 +16°C° 0 mm 3 m/s 754 mmHg 73%
    05:00 +16°C° 0 mm 3 m/s 755 mmHg 71%
    06:00 +17°C° 0 mm 4 m/s 755 mmHg 69%
    07:00 +18°C° 0 mm 4 m/s 756 mmHg 67%
    08:00 +19°C° 0 mm 4 m/s 756 mmHg 61%
    09:00 +21°C° 0 mm 4 m/s 756 mmHg 55%
    10:00 +22°C° 0 mm 4 m/s 756 mmHg 49%
    11:00 +23°C° 0 mm 4 m/s 756 mmHg 45%
    12:00 +25°C° 0 mm 4 m/s 756 mmHg 41%
    13:00 +26°C° 0 mm 4 m/s 756 mmHg 37%
    14:00 +26°C° 0 mm 4 m/s 756 mmHg 37%
    15:00 +26°C° 0 mm 3 m/s 756 mmHg 37%
    16:00 +26°C° 0 mm 3 m/s 756 mmHg 37%
    17:00 +25°C° 0 mm 3 m/s 756 mmHg 41%
    18:00 +23°C° 0 mm 2 m/s 756 mmHg 45%
    19:00 +22°C° 0 mm 1 m/s 756 mmHg 50%
    20:00 +21°C° 0 mm 1 m/s 756 mmHg 53%
    21:00 +20°C° 0 mm 1 m/s 757 mmHg 56%
    22:00 +19°C° 0 mm 1 m/s 757 mmHg 59%
    23:00 +18°C° 0 mm 2 m/s 757 mmHg 62%

    22 Août, Mercredi

    Heure Température Précipitation Vent Pression Humidité
    00:00 +17°C° 0 mm 2 m/s 757 mmHg 64%
    01:00 +17°C° 0 mm 2 m/s 757 mmHg 67%
    02:00 +16°C° 0 mm 2 m/s 757 mmHg 69%
    03:00 +16°C° 0 mm 2 m/s 757 mmHg 71%
    04:00 +16°C° 0 mm 2 m/s 757 mmHg 72%
    05:00 +17°C° 0 mm 2 m/s 757 mmHg 70%
    06:00 +18°C° 0 mm 3 m/s 757 mmHg 67%
    07:00 +19°C° 0 mm 3 m/s 757 mmHg 64%
    08:00 +21°C° 0 mm 3 m/s 757 mmHg 58%
    09:00 +24°C° 0 mm 3 m/s 757 mmHg 51%
    10:00 +25°C° 0 mm 3 m/s 757 mmHg 45%
    11:00 +26°C° 0 mm 3 m/s 757 mmHg 43%
    12:00 +27°C° 0 mm 3 m/s 756 mmHg 40%
    13:00 +28°C° 0 mm 3 m/s 756 mmHg 38%
    14:00 +28°C° 0 mm 3 m/s 755 mmHg 38%
    15:00 +28°C° 0 mm 3 m/s 755 mmHg 38%
    16:00 +28°C° 0 mm 3 m/s 755 mmHg 38%
    17:00 +27°C° 0 mm 3 m/s 755 mmHg 42%
    18:00 +25°C° 0 mm 3 m/s 754 mmHg 47%
    19:00 +24°C° 0 mm 3 m/s 754 mmHg 52%
    20:00 +22°C° 0 mm 3 m/s 754 mmHg 53%
    21:00 +21°C° 0 mm 3 m/s 755 mmHg 54%
    22:00 +20°C° 0 mm 3 m/s 755 mmHg 56%
    23:00 +20°C° 0 mm 3 m/s 754 mmHg 58%

    23 Août, Jeudi

    Heure Température Précipitation Vent Pression Humidité
    00:00 +19°C° 0 mm 3 m/s 754 mmHg 61%
    01:00 +19°C° 0 mm 3 m/s 754 mmHg 64%
    02:00 +18°C° 0 mm 3 m/s 754 mmHg 68%
    03:00 +18°C° 0 mm 3 m/s 754 mmHg 71%
    04:00 +18°C° 0 mm 3 m/s 753 mmHg 75%
    05:00 +19°C° 0 mm 3 m/s 753 mmHg 73%
    06:00 +20°C° 0 mm 3 m/s 753 mmHg 70%
    07:00 +21°C° 0 mm 4 m/s 753 mmHg 68%
    08:00 +23°C° 0 mm 4 m/s 753 mmHg 61%
    09:00 +26°C° 0 mm 4 m/s 753 mmHg 54%
    10:00 +28°C° 0 mm 4 m/s 753 mmHg 47%
    11:00 +29°C° 0 mm 3 m/s 752 mmHg 43%
    12:00 +30°C° 0 mm 3 m/s 752 mmHg 40%
    13:00 +31°C° 0 mm 3 m/s 751 mmHg 36%
    14:00 +31°C° 0 mm 2 m/s 751 mmHg 37%
    15:00 +30°C° 0 mm 2 m/s 751 mmHg 38%
    16:00 +30°C° 0 mm 1 m/s 750 mmHg 38%
    17:00 +29°C° 0 mm 1 m/s 750 mmHg 41%
    18:00 +28°C° 0 mm 2 m/s 750 mmHg 43%
    19:00 +27°C° 0 mm 2 m/s 750 mmHg 46%
    20:00 +26°C° 0 mm 2 m/s 750 mmHg 47%
    21:00 +25°C° 0 mm 3 m/s 749 mmHg 48%
    22:00 +24°C° 0 mm 3 m/s 749 mmHg 49%
    23:00 +24°C° 0 mm 3 m/s 749 mmHg 51%

    24 Août, Vendredi

    Heure Température Précipitation Vent Pression Humidité
    00:00 +22°C° 0 mm 3 m/s 749 mmHg 52%
    01:00 +22°C° 0 mm 3 m/s 748 mmHg 54%
    02:00 +21°C° 0 mm 3 m/s 748 mmHg 57%
    03:00 +21°C° 0 mm 3 m/s 747 mmHg 59%
    04:00 +21°C° 0 mm 3 m/s 747 mmHg 62%
    05:00 +22°C° 0 mm 3 m/s 747 mmHg 62%
    06:00 +23°C° 0 mm 4 m/s 746 mmHg 62%
    07:00 +25°C° 0 mm 4 m/s 746 mmHg 62%
    08:00 +27°C° 0 mm 4 m/s 746 mmHg 57%
    09:00 +28°C° 0 mm 4 m/s 746 mmHg 52%
    10:00 +30°C° 0 mm 4 m/s 745 mmHg 48%
    11:00 +32°C° 0 mm 4 m/s 745 mmHg 45%
    12:00 +33°C° 0 mm 5 m/s 745 mmHg 42%
    13:00 +34°C° 0 mm 5 m/s 744 mmHg 39%
    14:00 +33°C° 0 mm 5 m/s 744 mmHg 42%
    15:00 +32°C° 0 mm 5 m/s 744 mmHg 44%
    16:00 +30°C° 0 mm 5 m/s 744 mmHg 47%
    17:00 +29°C° 0,2 mm 5 m/s 744 mmHg 53%
    18:00 +27°C° 0,2 mm 5 m/s 744 mmHg 59%
    19:00 +25°C° 0,2 mm 5 m/s 745 mmHg 65%
    20:00 +22°C° 0,1 mm 5 m/s 745 mmHg 71%
    21:00 +21°C° 0,1 mm 5 m/s 746 mmHg 77%
    22:00 +19°C° 0,1 mm 5 m/s 746 mmHg 83%
    23:00 +17°C° 0 mm 5 m/s 747 mmHg 82%
    Voir plus